Regional Weather Roundup
Issued by NWS

Home | Current Version | Previous Version | Graphics & Text | Print | Product List | Glossary On
Versions: 1 2 3 4 5 6 7 8 9 10 11 12 13 14 15 16 17 18 19 20 21 22 23 24 25 26 27 28 29 30 31 32 33 34 35 36 37 38 39 40 41 42 43 44 45 46 47 48 49 50
000
ASUS43 KDMX 230701
RWRIA

WEATHER ROUNDUP FOR IOWA
NATIONAL WEATHER SERVICE DES MOINES IA
200 AM CDT SUN APR 23 2017

NOTE: "FAIR" INDICATES FEW OR NO CLOUDS BELOW 12,000 FEET WITH NO
SIGNIFICANT WEATHER AND/OR OBSTRUCTIONS TO VISIBILITY.

* - THESE STATIONS ARE NOT NWS STATIONS...THUS NOT UNDER NWS
QUALITY CONTROL.  THEY ALSO DO NOT REPORT WEATHER SUCH
AS PRECIPITATION OR FOG.

IAZ001>003-012>014-020>022-031>034-043>046-230800-
   NORTHWEST IOWA

CITY           SKY/WX    TMP DP  RH WIND       PRES   REMARKS
CARROLL *      PTCLDY    45  37  76 W6        30.17S
DENISON *      PTCLDY    39  36  87 CALM      30.19F
LE MARS *      CLEAR     41  36  81 S3        30.17F
ORANGE CITY *  CLEAR     46  36  66 CALM      30.16S
SHELDON *      CLEAR     46  34  61 SW6       30.14F
SIOUX CITY     CLEAR     44  36  73 CALM      30.17F
SPENCER        CLEAR     39  34  82 SW8       30.15S WCI  33
STORM LAKE *   CLEAR     50  32  50 W7        30.17S
$$

IAZ055>058-069>071-079>083-090>094-230800-
   SOUTHWEST IOWA

CITY           SKY/WX    TMP DP  RH WIND       PRES   REMARKS
ATLANTIC *     CLEAR     37  34  87 CALM      30.19S
AUDUBON *      CLEAR     36  34  93 CALM      30.19S
CLARINDA *       N/A     36  36 100 CALM      30.21F
COUNCIL BLFS * CLEAR     54  30  40 SW5       30.18F
CRESTON *      CLEAR     46  30  53 CALM      30.19F
HARLAN  *      CLEAR     39  37  93 CALM      30.21F
LAMONI         CLEAR     42  33  70 W5        30.18S
RED OAK *      CLEAR     37  34  87 CALM      30.19S
SHENANDOAH *   CLEAR     39  34  81 CALM      30.21R
$$

IAZ047>049-059>061-072>074-084-230800-
   CENTRAL IOWA

CITY           SKY/WX    TMP DP  RH WIND       PRES   REMARKS
AMES           CLEAR     42  34  73 CALM      30.16S
ANKENY *       CLEAR     39  36  87 CALM      30.18S
BOONE *        CLEAR     52  30  43 SW8       30.15F
CHARITON *     CLEAR     43  30  61 SW5       30.16F
DES MOINES     CLEAR     48  31  51 CALM      30.17S
GRINNELL*      CLEAR     44  34  68 CALM      30.17S
KNOXVILLE *    CLEAR     45  30  57 SW5       30.15S
MARSHALLTOWN   CLEAR     44  35  70 CALM      30.15S
NEWTON *       CLEAR     48  28  46 W3        30.15S
PELLA *        CLEAR     46  32  59 CALM      30.17F
PERRY *          N/A     43  32  64 SW5       30.17F
$$

IAZ004>006-015-016-023>025-035-036-230800-
   NORTH CENTRAL IOWA

CITY           SKY/WX    TMP DP  RH WIND       PRES   REMARKS
ALGONA *       CLEAR     48  36  61 SW9       30.15S
CLARION *      CLEAR     43  36  75 S6        30.15F
ESTHERVILLE    CLEAR     44  36  73 W12       30.14S
FORT DODGE *   CLEAR     43  34  70 CALM      30.16F
MASON CITY     CLEAR     49  32  52 SW9       30.15S
FOREST CITY *    N/A     41  32  70 CALM      30.14F
WEBSTER CITY * CLEAR     45  34  65 SW9       30.13F
IOWA FALLS *     N/A     49  32  51 SW9       30.16F
$$

IAZ007>011-017>019-026>030-037>042-050>054-066-230800-
   NORTHEAST IOWA

CITY           SKY/WX    TMP DP  RH WIND       PRES   REMARKS
CEDAR RAPIDS   CLEAR     44  30  57 CALM      30.14S
CHARLES CITY * CLEAR     46  34  61 SW6       30.14F
CLINTON *      CLEAR     44  35  70 CALM      30.15S
DECORAH *      CLEAR     50  30  46 SW3       30.12F
DUBUQUE        CLEAR     43  32  65 CALM      30.14S
MONTICELLO *   CLEAR     37  36  93 CALM      30.14S
OELWEIN *      CLEAR     46  32  57 S5        30.14F
WATERLOO       CLEAR     41  35  79 CALM      30.14S
$$

IAZ064-065-067-068-078-230800-
   EAST CENTRAL IOWA

CITY           SKY/WX    TMP DP  RH WIND       PRES   REMARKS
DAVENPORT      CLEAR     42  32  67 S3        30.14F
IOWA CITY      CLEAR     40  34  79 CALM      30.16S
MUSCATINE *    CLEAR     41  34  75 SE3       30.15S
QUAD CITIES    CLEAR     40  35  83 CALM      30.14F
$$

IAZ062-063-075>077-085>089-095>099-230800-
   SOUTHEAST IOWA

CITY           SKY/WX    TMP DP  RH WIND       PRES   REMARKS
BURLINGTON     CLEAR     42  37  82 CALM      30.14F
FAIRFIELD *    CLEAR     41  32  70 CALM      30.15S
FORT MADISON * CLEAR     45  34  65 CALM      30.15F
KEOKUK *       CLEAR     43  37  81 CALM      30.14F
OSKALOOSA *      N/A     41  32  69 CALM      30.17S
OTTUMWA        CLEAR     41  29  62 CALM      30.16S
WASHINGTON *   CLEAR     41  37  87 CALM      30.16S
$$

ABBREVIATIONS USED IN REMARKS
   TC - TEMPERATURES IN CELSIUS
  WCI - WIND CHILL INDEX
   HX - HEAT INDEX
  VSB - VISIBILITY
$$




USA.gov is the U.S. government's official web portal to all federal, state and local government web resources and services.